Change the Weather History Date:

Monday, June 24, 2013

  Actual Average Record
Temperature  
Mean Temperature 67 °F 70 °F  
Max Temperature 75 °F 87 °F 107 °F (1970)
Min Temperature 58 °F 54 °F 39 °F (1983)
Degree Days  
Heating Degree Days 0 1  
Month to date heating degree days 36 47  
Since 1 June heating degree days 36 47  
Since 1 July heating degree days 5687 5997  
Cooling Degree Days 2 6  
Month to date cooling degree days 121 96  
Year to date cooling degree days 168 132  
Since 1 June cooling degree days 121 96  
Growing Degree Days 15 (Base 50)    
Moisture  
Dew Point 55 °F    
Average Humidity 67    
Maximum Humidity 87    
Minimum Humidity 47    
Precipitation  
Precipitation 0.09 in 0.02 in 0.44 in (1950)
Month to date precipitation 0.36 0.60  
Year to date precipitation 2.30 5.67  
Sea Level Pressure  
Sea Level Pressure 29.68 in    
Wind  
Wind Speed 5 mph (South)    
Max Wind Speed 22 mph    
Max Gust Speed 29 mph    
Visibility 10 miles    
Events Rain , Thunderstorm    
T = Trace of Precipitation, MM = Missing Value Source: NWS Daily Summary

Daily Weather History Graph

Daily Weather History Graph

Search for Another Location

Airport or City:

Trip Planner

Search our weather history database for the weather conditions in past years. The results will help you decide how hot, cold, wet, or windy it might be!

Date:

Astronomy

Jun. 24, 2013 Rise Set
Actual Time 6:06 AM MDT 9:35 PM MDT
Civil Twilight 5:29 AM MDT 10:11 PM MDT
Nautical Twilight 4:41 AM MDT 10:59 PM MDT
Astronomical Twilight 3:40 AM MDT 12:00 AM MDT
Moon 10:35 PM MDT (6/24) 7:43 AM MDT (6/24)
Length of Visible Light 16h 41m
Length of Day
15h 28m
Full, 97% of the Moon is Illuminated
Jun 24
Full
Jun 29
Last Quarter
Jul 8
New
Jul 15
First Quarter
Jul 22
Full

Hourly Weather History & Observations

Time (MDT) Temp. Dew Point Humidity Pressure Visibility Wind Dir Wind Speed Gust Speed Precip Events Conditions
12:53 AM 66.0 °F 53.1 °F 63% 29.63 in 10.0 mi WSW 10.4 mph - 0.00 in Rain Light Rain
1:53 AM 63.0 °F 55.9 °F 78% 29.65 in 10.0 mi South 5.8 mph - 0.01 in Rain Light Rain
2:53 AM 63.0 °F 55.0 °F 75% 29.64 in 10.0 mi SSE 3.5 mph - 0.00 in Rain Light Rain
3:53 AM 63.0 °F 55.9 °F 78% 29.64 in 10.0 mi Calm Calm - 0.00 in   Mostly Cloudy
4:53 AM 59.0 °F 55.0 °F 87% 29.65 in 10.0 mi SE 3.5 mph - N/A   Partly Cloudy
5:53 AM 57.9 °F 54.0 °F 87% 29.64 in 10.0 mi SE 3.5 mph - N/A   Clear
6:53 AM 60.1 °F 55.0 °F 83% 29.64 in 10.0 mi Calm Calm - N/A   Overcast
7:53 AM 63.0 °F 55.0 °F 75% 29.64 in 10.0 mi SSE 3.5 mph - N/A   Mostly Cloudy
8:53 AM 64.9 °F 57.0 °F 75% 29.65 in 10.0 mi SSE 4.6 mph - N/A   Mostly Cloudy
9:53 AM 69.1 °F 57.0 °F 65% 29.65 in 10.0 mi SSE 8.1 mph - N/A   Clear
10:53 AM 70.0 °F 55.0 °F 59% 29.64 in 10.0 mi SSE 5.8 mph - N/A   Clear
11:53 AM 71.1 °F 52.0 °F 51% 29.65 in 10.0 mi SSE 4.6 mph - N/A   Partly Cloudy
12:53 PM 68.0 °F 51.1 °F 55% 29.66 in 10.0 mi South 10.4 mph 23.0 mph 0.00 in Rain Light Rain
1:53 PM 73.9 °F 53.1 °F 48% 29.63 in 10.0 mi SSE 9.2 mph - 0.00 in   Partly Cloudy
2:53 PM 69.1 °F 48.9 °F 49% 29.67 in 10.0 mi WSW 13.8 mph - N/A   Mostly Cloudy
3:00 PM 66.2 °F 53.6 °F 64% 29.71 in 9.0 mi WSW 20.7 mph 26.5 mph 0.01 in Rain , Thunderstorm Light Rain
3:07 PM 62.6 °F 55.4 °F 77% 29.71 in 6.0 mi SW 11.5 mph 28.8 mph 0.01 in Rain , Thunderstorm Light Rain
3:19 PM 62.6 °F 55.4 °F 77% 29.72 in 8.0 mi WSW 11.5 mph - 0.02 in Rain Light Rain
3:53 PM 64.9 °F 55.9 °F 73% 29.70 in 10.0 mi West 6.9 mph - 0.03 in   Mostly Cloudy
4:53 PM 64.9 °F 54.0 °F 68% 29.70 in 10.0 mi NW 4.6 mph - 0.01 in Rain Light Rain
5:53 PM 64.9 °F 55.9 °F 73% 29.71 in 10.0 mi East 3.5 mph - 0.02 in   Mostly Cloudy
6:53 PM 64.0 °F 55.0 °F 73% 29.73 in 8.0 mi ESE 4.6 mph - 0.00 in Rain Light Rain
7:53 PM 64.9 °F 55.9 °F 73% 29.73 in 10.0 mi East 3.5 mph - 0.02 in   Mostly Cloudy
8:53 PM 63.0 °F 55.9 °F 78% 29.75 in 10.0 mi ESE 4.6 mph - N/A   Overcast
9:53 PM 62.1 °F 57.9 °F 86% 29.75 in 10.0 mi Calm Calm - 0.00 in   Overcast
10:53 PM 62.1 °F 55.9 °F 80% 29.78 in 10.0 mi Calm Calm - N/A   Overcast
11:53 PM 61.0 °F 55.9 °F 83% 29.78 in 10.0 mi SSE 5.8 mph - N/A   Overcast